Simultaneous Nadir Overpasses (SNOs) Predictions

Prediction of SNOs between LANDSAT-8 and METOP-B Satellite Orbit:

Table of predicted SNOs for the next 14.0 days since TLE Epoch: 7/20/2024
Index Date (LANDSAT-8) Time (LANDSAT-8) Lat,Lon (LANDSAT-8) SZA (LANDSAT-8 ) Date (METOP-B) Time (METOP-B) Lat,Lon (METOP-B) SZA (METOP-B ) Distance(km) Time Diff (sec)
1 07/22/2024 05:02:29 -81.37, -31.35 116.43 07/22/2024 05:02:27 -81.37, -31.49 116.45 2.39 2
2 07/22/2024 05:51:55 81.38, 136.46 63.60 07/22/2024 05:53:06 81.38, 136.51 63.64 0.94 71
3 07/24/2024 23:47:19 81.36,-132.61 64.14 07/24/2024 23:46:15 81.37,-132.43 64.14 3.07 64
4 07/25/2024 00:36:45 -81.38, 35.31 115.82 07/25/2024 00:36:55 -81.38, 35.34 115.81 0.47 10
5 07/27/2024 19:21:33 81.38, -65.93 64.80 07/27/2024 19:20:42 81.38, -65.77 64.80 2.81 51
6 07/27/2024 20:11:00 -81.37, 101.62 115.21 07/27/2024 20:11:23 -81.38, 101.63 115.19 0.57 23
7 07/30/2024 14:55:48 81.37, 0.39 65.46 07/30/2024 14:55:11 81.37, 0.36 65.44 0.54 37
8 07/30/2024 15:45:14 -81.39, 168.36 114.49 07/30/2024 15:45:51 -81.38, 168.18 114.50 3.09 37
9 08/02/2024 10:30:01 81.39, 67.15 66.21 08/02/2024 10:29:38 81.38, 67.15 66.20 0.71 23



Historial Predications of SNOs between LANDSAT-8 and METOP-B
